Total_Precipitation_Accumulation
0.15 0.20 0.19 0.10 0.07 0.09 0.13 0.07 0.06 0.04 0.03 0.03 0.04 0.05 0.05 0.02 0.02 0.03 0.10 0.16 0.43 0.45 0.28 0.31 0.42 0.49 0.50 0.54 0.53 0.52 0.59 0.63 0.62
0.16 0.07 0.11 0.08 0.06 0.05 0.03 0.03 0.03 0.02 0.02 0.02 0.03 0.04 0.03 0.01 0.01 0.07 0.12 0.15 0.25 0.22 0.20 0.16 0.23 0.28 0.32 0.33 0.39 0.52 0.72 0.78 0.77
0.27 0.07 0.09 0.08 0.07 0.05 0.04 0.02 0.02 0.03 0.03 0.03 0.05 0.03 0.01 0.01 0.05 0.06 0.05 0.15 0.15 0.15 0.17 0.21 0.23 0.25 0.27 0.32 0.41 0.55 0.67 0.69 0.65
0.16 0.12 0.11 0.09 0.09 0.08 0.06 0.04 0.05 0.06 0.04 0.08 0.06 0.03 0.02 0.03 0.01 0.02 0.03 0.10 0.19 0.16 0.21 0.22 0.26 0.33 0.35 0.42 0.46 0.50 0.55 0.61 0.69
0.16 0.09 0.08 0.09 0.08 0.06 0.07 0.08 0.07 0.09 0.08 0.06 0.07 0.02 0.02 0.01 0.02 0.03 0.06 0.11 0.18 0.21 0.21 0.22 0.26 0.37 0.46 0.53 0.53 0.47 0.47 0.53 0.56
0.09 0.03 0.06 0.07 0.05 0.07 0.10 0.12 0.12 0.07 0.03 0.03 0.03 0.03 0.03 0.03 0.03 0.04 0.11 0.17 0.17 0.21 0.29 0.43 0.53 0.58 0.61 0.58 0.45 0.42 0.45 0.43 0.44
0.17 0.11 0.06 0.06 0.04 0.04 0.09 0.11 0.09 0.04 0.02 0.02 0.02 0.02 0.03 0.03 0.03 0.05 0.15 0.14 0.15 0.17 0.28 0.36 0.28 0.24 0.30 0.35 0.31 0.30 0.32 0.39 0.46
0.24 0.29 0.19 0.11 0.04 0.02 0.06 0.06 0.05 0.04 0.03 0.02 0.03 0.01 0.01 0.02 0.04 0.08 0.15 0.13 0.15 0.21 0.22 0.23 0.19 0.18 0.22 0.24 0.21 0.26 0.29 0.31 0.40
0.19 0.19 0.17 0.25 0.24 0.14 0.14 0.10 0.07 0.05 0.04 0.04 0.03 0.02 0.02 0.02 0.02 0.04 0.09 0.14 0.18 0.22 0.23 0.22 0.18 0.16 0.17 0.19 0.26 0.31 0.33 0.31 0.36
0.16 0.11 0.11 0.10 0.15 0.17 0.22 0.20 0.15 0.15 0.12 0.11 0.08 0.05 0.03 0.03 0.03 0.03 0.03 0.09 0.07 0.08 0.16 0.24 0.25 0.23 0.23 0.27 0.31 0.33 0.32 0.32 0.33
0.12 0.07 0.06 0.05 0.07 0.07 0.12 0.17 0.16 0.16 0.19 0.12 0.15 0.14 0.12 0.07 0.06 0.05 0.05 0.06 0.06 0.05 0.06 0.12 0.19 0.27 0.33 0.37 0.42 0.39 0.33 0.32 0.31
0.16 0.13 0.11 0.07 0.10 0.15 0.15 0.13 0.15 0.14 0.17 0.19 0.23 0.26 0.21 0.20 0.17 0.13 0.08 0.08 0.07 0.07 0.12 0.30 0.32 0.32 0.41 0.68 0.73 0.59 0.47 0.41 0.41
0.23 0.21 0.10 0.27 0.32 0.34 0.26 0.25 0.16 0.12 0.16 0.13 0.15 0.18 0.28 0.28 0.25 0.27 0.21 0.12 0.09 0.08 0.07 0.19 0.42 0.59 0.66 0.92 1.26 1.14 0.87 0.71 0.63
0.19 0.18 0.19 0.30 0.35 0.36 0.31 0.34 0.31 0.27 0.29 0.30 0.24 0.16 0.15 0.23 0.30 0.29 0.28 0.23 0.17 0.13 0.18 0.21 0.25 0.38 0.47 0.55 0.84 1.37 1.19 1.00 0.96
0.45 0.32 0.20 0.29 0.23 0.22 0.24 0.23 0.28 0.31 0.37 0.35 0.31 0.29 0.28 0.27 0.26 0.34 0.39 0.38 0.39 0.33 0.31 0.30 0.28 0.35 0.34 0.37 0.51 0.80 1.28 1.33 1.45
0.55 0.41 0.34 0.31 0.17 0.12 0.21 0.21 0.22 0.22 0.27 0.35 0.33 0.33 0.54 0.75 0.77 0.68 0.61 0.60 0.58 0.68 0.54 0.39 0.30 0.28 0.43 0.46 0.36 0.41 0.66 0.96 1.25
0.60 0.43 0.48 0.34 0.21 0.16 0.16 0.23 0.20 0.15 0.16 0.24 0.25 0.23 0.19 0.30 0.44 0.47 0.35 0.26 0.38 0.44 0.55 0.63 0.52 0.34 0.24 0.25 0.34 0.36 0.43 0.66 0.87
1.27 1.01 0.90 0.71 0.52 0.54 0.43 0.52 0.52 0.41 0.35 0.33 0.45 0.38 0.24 0.18 0.11 0.14 0.18 0.23 0.22 0.24 0.27 0.31 0.34 0.30 0.27 0.30 0.32 0.39 0.55 0.65 0.85
1.82 1.84 1.63 1.39 1.29 1.14 1.18 1.02 1.13 1.21 1.08 0.90 0.73 0.72 0.58 0.52 0.30 0.15 0.22 0.25 0.26 0.28 0.26 0.25 0.33 0.42 0.42 0.53 0.62 0.72 0.82 0.80 0.78
1.50 1.68 1.85 1.87 1.94 1.89 1.97 1.90 1.72 1.53 1.35 1.12 1.00 0.89 0.88 0.86 1.01 0.72 0.36 0.29 0.22 0.23 0.26 0.29 0.35 0.41 0.48 0.57 0.64 0.70 0.78 0.76 0.80